Wetterdaten: aktuell Dienstag, 17.07.2018 21:15
Datum Zeit Temp. I. Temp. A. Bodent.-20cm Feuchte I. Feuchte A. BlattFeuchte BodenFeuchte Luftdruck Regen Wind Richtung Richtung Sonnenschein T Regen ET UV Solar Taupunkt Windchill Windben Empfang
17.07.2018 21:15 25,0 C 22,7 C 17,2 C 53 % 61 % 0 lf 17 cb 1009,4 hPa 0,0 mm 5,7 km/h (1 Bft) N-NO 32 0 min 0 min 0,076 mm 0,0 UV-I 0 W/m 14,8 C 22,7 C 11,3 km/h (2 Bft) 99,15 %
17.07.2018 20:15 25,1 C 23,5 C 17,2 C 53 % 59 % 0 lf 17 cb 1009,1 hPa 0,0 mm 8,7 km/h (2 Bft) W-SW 248 30 min 0 min 0,127 mm 0,0 UV-I 43 W/m 15,0 C 22,8 C 17,7 km/h (3 Bft) 100,00 %
17.07.2018 19:15 25,1 C 24,3 C 17,2 C 53 % 54 % 0 lf 17 cb 1009,3 hPa 0,0 mm 5,5 km/h (1 Bft) W-SW 242 20 min 0 min 0,127 mm 0,0 UV-I 184 W/m 14,4 C 24,3 C 11,3 km/h (2 Bft) 96,33 %
17.07.2018 18:15 25,1 C 23,6 C 17,2 C 53 % 52 % 0 lf 17 cb 1009,5 hPa 0,0 mm 3,9 km/h (1 Bft) W-NW 302 0 min 0 min 0,001 mm 0,1 UV-I 94 W/m 13,2 C 23,6 C 6,4 km/h (2 Bft) 98,29 %
17.07.2018 17:15 25,1 C 23,6 C 17,2 C 53 % 53 % 0 lf 17 cb 1009,9 hPa 0,0 mm 3,9 km/h (1 Bft) N-NW 344 0 min 0 min 0,152 mm 0,6 UV-I 82 W/m 13,4 C 23,6 C 6,4 km/h (2 Bft) 100,00 %
17.07.2018 16:15 25,1 C 23,1 C 17,2 C 52 % 54 % 0 lf 17 cb 1009,9 hPa 0,0 mm 12,0 km/h (2 Bft) N-NW 334 0 min 0 min 0,178 mm 0,7 UV-I 98 W/m 13,3 C 21,6 C 19,3 km/h (3 Bft) 100,00 %
17.07.2018 15:15 25,2 C 24,4 C 17,2 C 52 % 49 % 0 lf 17 cb 1009,8 hPa 0,0 mm 16,0 km/h (3 Bft) N-NO 20 15 min 0 min 0,355 mm 0,0 UV-I 31 W/m 13,0 C 22,4 C 29,0 km/h (5 Bft) 100,00 %
17.07.2018 14:15 25,2 C 24,3 C 17,2 C 52 % 56 % 0 lf 17 cb 1009,2 hPa 0,0 mm 19,3 km/h (3 Bft) SW 233 40 min 0 min 0,483 mm 2,4 UV-I 249 W/m 14,9 C 21,8 C 30,6 km/h (5 Bft) 96,58 %
17.07.2018 13:15 25,1 C 23,7 C 17,2 C 52 % 56 % 0 lf 17 cb 1009,8 hPa 0,0 mm 15,0 km/h (3 Bft) W 271 20 min 0 min 0,381 mm 3,2 UV-I 240 W/m 14,4 C 21,7 C 33,8 km/h (5 Bft) 99,15 %
17.07.2018 12:15 25,1 C 22,9 C 17,2 C 52 % 61 % 0 lf 17 cb 1010,3 hPa 0,0 mm 15,0 km/h (3 Bft) SW 233 50 min 0 min 0,406 mm 4,1 UV-I 597 W/m 15,0 C 20,8 C 24,1 km/h (4 Bft) 99,15 %
17.07.2018 11:15 25,0 C 20,6 C 17,2 C 53 % 68 % 0 lf 17 cb 1010,6 hPa 0,0 mm 11,9 km/h (2 Bft) W 269 0 min 0 min 0,153 mm 3,7 UV-I 369 W/m 14,5 C 18,7 C 19,3 km/h (3 Bft) 100,00 %
17.07.2018 10:15 24,9 C 19,3 C 17,2 C 53 % 71 % 0 lf 16 cb 1010,5 hPa 0,0 mm 10,6 km/h (2 Bft) NW 305 0 min 0 min 0,101 mm 0,0 UV-I 54 W/m 13,9 C 17,7 C 19,3 km/h (3 Bft) 100,00 %
17.07.2018 09:15 25,0 C 20,3 C 17,2 C 53 % 67 % 0 lf 16 cb 1010,4 hPa 0,0 mm 8,0 km/h (2 Bft) W-NW 303 0 min 0 min 0,178 mm 0,8 UV-I 117 W/m 14,0 C 19,7 C 16,1 km/h (3 Bft) 97,44 %
17.07.2018 08:15 25,0 C 20,1 C 17,2 C 52 % 65 % 0 lf 16 cb 1010,1 hPa 0,0 mm 8,3 km/h (2 Bft) W 269 25 min 0 min 0,153 mm 0,9 UV-I 163 W/m 13,3 C 19,3 C 14,5 km/h (3 Bft) 98,29 %
17.07.2018 07:15 25,0 C 18,9 C 17,2 C 53 % 70 % 0 lf 16 cb 1010,0 hPa 0,0 mm 3,8 km/h (1 Bft) W 265 45 min 0 min 0,076 mm 0,6 UV-I 179 W/m 13,3 C 18,9 C 6,4 km/h (2 Bft) 100,00 %
17.07.2018 06:15 24,9 C 18,3 C 17,2 C 53 % 72 % 0 lf 16 cb 1009,7 hPa 0,0 mm 3,6 km/h (1 Bft) W-NW 292 5 min 0 min 0,025 mm 0,0 UV-I 51 W/m 13,2 C 18,3 C 6,4 km/h (2 Bft) 100,00 %
17.07.2018 05:15 24,9 C 18,3 C 17,2 C 53 % 73 % 0 lf 16 cb 1009,8 hPa 0,0 mm 5,4 km/h (1 Bft) NW 313 0 min 0 min 0,026 mm 0,0 UV-I 0 W/m 13,4 C 18,3 C 11,3 km/h (2 Bft) 99,15 %
17.07.2018 04:15 24,9 C 18,2 C 17,2 C 53 % 74 % 0 lf 16 cb 1009,7 hPa 0,0 mm 2,8 km/h (1 Bft) NW 309 0 min 0 min 0,025 mm 0,0 UV-I 0 W/m 13,5 C 18,2 C 6,4 km/h (2 Bft) 97,44 %
17.07.2018 03:15 24,9 C 18,4 C 17,2 C 53 % 74 % 0 lf 16 cb 1009,6 hPa 0,0 mm 4,0 km/h (1 Bft) NW 326 0 min 0 min 0,025 mm 0,0 UV-I 0 W/m 13,7 C 18,4 C 8,0 km/h (2 Bft) 100,00 %
17.07.2018 02:15 24,9 C 18,9 C 17,8 C 53 % 73 % 0 lf 16 cb 1009,5 hPa 0,0 mm 4,2 km/h (1 Bft) W-NW 288 0 min 0 min 0,051 mm 0,0 UV-I 0 W/m 13,9 C 18,9 C 8,0 km/h (2 Bft) 100,00 %
17.07.2018 01:15 24,9 C 19,3 C 17,8 C 53 % 68 % 0 lf 16 cb 1009,5 hPa 0,0 mm 3,2 km/h (1 Bft) NW 321 0 min 0 min 0,051 mm 0,0 UV-I 0 W/m 13,2 C 19,3 C 6,4 km/h (2 Bft) 99,15 %
17.07.2018 00:15 24,9 C 19,8 C 17,8 C 53 % 66 % 0 lf 16 cb 1010,2 hPa 0,0 mm 5,3 km/h (1 Bft) N 355 0 min 0 min 0,000 mm 0,0 UV-I 0 W/m 13,3 C 19,8 C 9,7 km/h (2 Bft) 100,00 %
16.07.2018 23:15 24,9 C 20,2 C 17,8 C 53 % 69 % 0 lf 16 cb 1009,8 hPa 0,0 mm 0,0 km/h (0 Bft) W-NW 303 0 min 0 min 0,025 mm 0,0 UV-I 0 W/m 14,3 C 20,2 C 0,0 km/h (0 Bft) 97,50 %
16.07.2018 22:15 24,9 C 20,7 C 17,8 C 53 % 69 % 0 lf 15 cb 1009,4 hPa 0,0 mm 2,8 km/h (1 Bft) N-NW 337 0 min 0 min 0,025 mm 0,0 UV-I 0 W/m 14,8 C 20,7 C 4,8 km/h (1 Bft) 100,00 %
16.07.2018 22:00 24,9 C 20,8 C 17,8 C 53 % 69 % 0 lf 15 cb 1009,3 hPa 0,0 mm 3,0 km/h (1 Bft) N-NW 337 0 min 0 min 0,000 mm 0,0 UV-I 0 W/m 14,9 C 20,8 C 4,8 km/h (1 Bft) 99,15 %
_ Min-Zeit 22:00 04:25 02:40 07:55 15:15 22:00 22:00 20:35 - 23:00 - - - - - - - 15:30 10:35 23:00 04:35
Minimum _ 24,9 C 18,1 C 17,2 C 52 % 49 % 0 lf 15 cb 1008,9 hPa - 0,0 km/h (0 Bft) - - - - - - - 11,9 C 16,1 C 0,0 km/h (0 Bft) 95,73 %
_ Max-Zeit 13:30 15:05 22:00 22:00 02:55 22:00 11:15 10:45 22:00 15:20 - - 05:35 22:00 14:05 13:40 13:35 14:45 19:35 15:20 22:05
Maximum _ 25,2 C 24,8 C 17,8 C 53 % 74 % 0 lf 17 cb 1010,6 hPa 0,0 mm 20,4 km/h
NO (4 Bft)
- - 5 min 0 min 0,483 mm 6,7 UV-I 974 W/m 15,7 C 24,4 C 40,2 km/h
N-NW (6 Bft)
100,00 %
Durchschnitt _ 25,0 C 21,1 C 17,4 C 53 % 65 % 0 lf 16 cb 1009,7 hPa #0,0 mm 7,2 km/h (2 Bft) W - #4:10 h #0 min. #3,226 mm 2,3 UV-I 224 W/m 14,0 C 20,4 C 12,8 km/h (3 Bft) 98,93 %